Great Salt Lake Weather Center

Moon Phase Calendar



Great Salt Lake Water Level
Online Cameras

 


      

Current Conditions in Little Mountain
9/23/2021 9:46:18 PM

64°F
Feels Like 62
Clear
Humidity
50%
Pressure
30.03"
Wind
12.7 mph (N)
Dew Point
45°F
UV Index
0/10 (Low)
Visibility
6 mi

Hourly Forecast

Date & Time Thu, Sep 23
9:00 PM
Thu, Sep 23
10:00 PM
Thu, Sep 23
11:00 PM
Fri, Sep 24
12:00 AM
Fri, Sep 24
1:00 AM
Fri, Sep 24
2:00 AM
Fri, Sep 24
3:00 AM
Fri, Sep 24
4:00 AM
Fri, Sep 24
5:00 AM
Fri, Sep 24
6:00 AM
Fri, Sep 24
7:00 AM
Fri, Sep 24
8:00 AM
Fri, Sep 24
9:00 AM
Fri, Sep 24
10:00 AM
Fri, Sep 24
11:00 AM
Fri, Sep 24
12:00 PM
Fri, Sep 24
1:00 PM
Fri, Sep 24
2:00 PM
Fri, Sep 24
3:00 PM
Fri, Sep 24
4:00 PM
Fri, Sep 24
5:00 PM
Fri, Sep 24
6:00 PM
Fri, Sep 24
7:00 PM
Fri, Sep 24
8:00 PM
Fri, Sep 24
9:00 PM
Fri, Sep 24
10:00 PM
Fri, Sep 24
11:00 PM
Sat, Sep 25
12:00 AM
Sat, Sep 25
1:00 AM
Sat, Sep 25
2:00 AM
Sat, Sep 25
3:00 AM
Sat, Sep 25
4:00 AM
Sat, Sep 25
5:00 AM
Sat, Sep 25
6:00 AM
Sat, Sep 25
7:00 AM
Sat, Sep 25
8:00 AM
Sat, Sep 25
9:00 AM
Sat, Sep 25
10:00 AM
Sat, Sep 25
11:00 AM
Sat, Sep 25
12:00 PM
Sat, Sep 25
1:00 PM
Sat, Sep 25
2:00 PM
Sat, Sep 25
3:00 PM
Sat, Sep 25
4:00 PM
Sat, Sep 25
5:00 PM
Sat, Sep 25
6:00 PM
Sat, Sep 25
7:00 PM
Sat, Sep 25
8:00 PM
Condition
Clear

Clear

Clear

Clouds

Clear

Clear

Clear

Clear

Clear

Clear

Clear

Clear

Clear

Clear

Clear

Clear

Clear

Clear

Clear

Clear

Clear

Clear

Clear

Clear

Clear

Clear

Clear

Clear

Clear

Clear

Clear

Clear

Clear

Clear

Clear

Clear

Clear

Clear

Clear

Clear

Clear

Clear

Clear

Clear

Clear

Clear

Clear

Clouds
Temperature 65°F64°F64°F65°F65°F64°F64°F63°F62°F62°F61°F61°F61°F62°F62°F63°F64°F65°F66°F67°F68°F68°F68°F68°F68°F68°F68°F67°F66°F66°F65°F65°F65°F64°F64°F64°F65°F65°F67°F68°F69°F71°F72°F73°F73°F73°F72°F73°F
Feels Like 63°F62°F63°F63°F63°F63°F62°F61°F60°F60°F59°F59°F59°F60°F60°F61°F62°F63°F64°F66°F66°F67°F67°F67°F67°F67°F66°F66°F65°F64°F64°F63°F63°F63°F62°F62°F63°F64°F65°F66°F68°F69°F71°F72°F72°F72°F71°F71°F
Cloudiness 9%9%9%11%7%4%2%2%2%3%5%4%4%5%4%3%0%0%0%0%0%0%0%0%0%0%0%0%0%0%0%0%0%0%0%0%0%1%2%3%5%5%5%5%5%6%7%15%
Visibility 6 mi6 mi6 mi6 mi6 mi6 mi6 mi6 mi6 mi6 mi6 mi6 mi6 mi6 mi6 mi6 mi6 mi6 mi6 mi6 mi6 mi6 mi6 mi6 mi6 mi6 mi6 mi6 mi6 mi6 mi6 mi6 mi6 mi6 mi6 mi6 mi6 mi6 mi6 mi6 mi6 mi6 mi6 mi6 mi6 mi6 mi6 mi6 mi
Precipitation 0%0%0%0%0%0%0%0%0%0%0%0%0%0%0%0%0%0%0%0%0%0%0%0%0%0%0%0%0%0%0%0%0%0%0%0%0%0%0%0%0%0%0%0%0%0%0%0%
Humidity 49%50%51%50%48%47%45%46%46%46%47%48%48%48%46%44%44%44%43%43%42%43%47%50%51%49%48%50%51%50%49%48%47%47%47%47%46%45%42%40%41%42%40%39%39%43%45%40%
Dew Point 45°F45°F46°F46°F45°F44°F42°F42°F41°F41°F41°F41°F41°F41°F41°F41°F41°F42°F43°F43°F44°F44°F47°F48°F49°F48°F47°F47°F48°F47°F45°F45°F44°F44°F43°F43°F43°F43°F43°F42°F44°F46°F46°F45°F46°F49°F50°F46°F
Pressure 30.03"30.03"30.03"30.03"30.03"30.06"30.06"30.06"30.06"30.09"30.09"30.12"30.12"30.12"30.12"30.12"30.09"30.06"30.03"30"30"29.97"29.97"29.97"29.97"29.97"29.97"29.97"29.97"29.97"29.97"29.97"29.97"29.97"30"30"30"30"30"29.97"29.94"29.91"29.88"29.85"29.85"29.83"29.83"29.83"
Wind Speed 13.3 mph12.7 mph13.2 mph12.2 mph10.3 mph9.4 mph6.9 mph6.5 mph5.2 mph4 mph4.4 mph5.1 mph5.4 mph5.1 mph2.6 mph1.3 mph3 mph4.1 mph4.7 mph4.4 mph4.2 mph3.8 mph3 mph1.6 mph1.1 mph3 mph4.8 mph5.8 mph6 mph6 mph6 mph6.1 mph6.6 mph7.3 mph7.5 mph7.2 mph7.2 mph6.2 mph3.8 mph1.5 mph0.8 mph3.6 mph4 mph3.5 mph3.2 mph2.7 mph1.7 mph5 mph
Wind
Direction
356°
N
360°
N
358°
N

N

N
14°
NNE
16°
NNE
24°
NNE
42°
NE
35°
NE
33°
NNE
43°
NE
56°
NE
71°
ENE
76°
ENE
328°
NNW
317°
NW
318°
NW
325°
NW
338°
NNW
345°
NNW
347°
NNW
344°
NNW
356°
N
125°
SE
155°
SSE
153°
SSE
145°
SE
126°
SE
117°
ESE
114°
ESE
110°
ESE
108°
ESE
109°
ESE
109°
ESE
114°
ESE
118°
ESE
121°
ESE
128°
SE
169°
S
27°
NNE
38°
NE
32°
NNE
13°
NNE
355°
N
358°
N
63°
ENE
132°
SE

Daily Forecast

Date High Low Precip. Humidity
Today
Sep 23

Clear
70 °F
63 °F
6%
41%
Friday
Sep 24

Clear
68 °F
61 °F
0%
44%
Saturday
Sep 25

Clear
73 °F
64 °F
0%
40%
Sunday
Sep 26

Clear
74 °F
67 °F
0%
44%
Monday
Sep 27

Clear
74 °F
67 °F
0%
41%
Tuesday
Sep 28

Clouds
73 °F
61 °F
8%
49%
Wednesday
Sep 29

Clouds
59 °F
51 °F
0%
48%
Thursday
Sep 30

Clear
61 °F
52 °F
0%
40%
Friday
Oct 1

Clear
63 °F
55 °F
0%
31%
Saturday
Oct 2

Clouds
67 °F
61 °F
0%
28%
Sunday
Oct 3

Clouds
68 °F
63 °F
0%
37%
Monday
Oct 4

Clear
71 °F
63 °F
8%
50%
Tuesday
Oct 5

Clear
68 °F
63 °F
8%
51%
Wednesday
Oct 6

Clear
68 °F
63 °F
16%
48%
Thursday
Oct 7

Clear
69 °F
63 °F
14%
50%
Friday
Oct 8

Rain
69 °F
63 °F
28%
59%

Temperature 8-14 Day Outlook



Precipitation 8-14 Day Outlook




Quick Links
Great Salt Lake News
Great Salt Lake Photos
Great Salt Lake Videos




About Us
Contact Us
Site Map
Search Site
Advertise With Us
   
GreatSalt.USLakes.info
THE GREAT SALT LAKE WEBSITE

Copyright 2021, Lakes Online
Privacy    |    Legal